Pineville, WV

9:07 AM EDT on July 26, 2017 (GMT -0400)
Pineville

Weather History for KI16 - May, 2014

Change the Weather History Date:

Saturday, May 3, 2014

  Actual Average (KBKW) Record (KBKW)
Temperature  
Mean Temperature 57 °F -  
Max Temperature 72 °F 65 °F 87 °F (1902)
Min Temperature 42 °F 44 °F 25 °F (1961)
Degree Days  
Heating Degree Days 8    
Growing Degree Days 7 (Base 50)    
Moisture  
Dew Point 43 °F    
Average Humidity 62    
Maximum Humidity 99    
Minimum Humidity 32    
Precipitation  
Precipitation 0.00 in - - ()
Sea Level Pressure  
Sea Level Pressure 29.97 in    
Wind  
Wind Speed - (North)    
Max Wind Speed -    
Max Gust Speed -    
Visibility 10 miles    
Events      
Averages and records for this station are not official NWS values.
T = Trace of Precipitation, MM = Missing Value Source: NWS Daily Summary

Daily Weather History Graph

Daily Weather History Graph

Search for Another Location

Airport or City:

Trip Planner

Search our weather history database for the weather conditions in past years. The results will help you decide how hot, cold, wet, or windy it might be!

Date:

Astronomy

May. 03, 2014 Rise Set
Actual Time 6:28 AM EDT 8:18 PM EDT
Civil Twilight 6:00 AM EDT 8:46 PM EDT
Nautical Twilight 5:26 AM EDT 9:21 PM EDT
Astronomical Twilight 4:49 AM EDT 9:57 PM EDT
Moon 9:58 AM EDT (5/3) No Moon Set
Length of Visible Light 14h 46m
Length of Day
13h 49m
Waxing Crescent, 19% of the Moon is Illuminated
May 3
Waxing Crescent
May 6
First Quarter
May 14
Full
May 21
Last Quarter
May 28
New

Hourly Weather History & Observations

Time (EDT) Temp. Dew Point Humidity Pressure Visibility Wind Dir Wind Speed Gust Speed Precip Events Conditions
12:15 AM 50.5 °F 45.9 °F 84% 29.96 in 10.0 mi North - - N/A   Overcast
12:35 AM 50.4 °F 45.9 °F 85% 29.96 in 10.0 mi North - - N/A   Overcast
12:55 AM 50.7 °F 46.4 °F 85% 29.97 in 10.0 mi North - - N/A   Overcast
1:15 AM 50.9 °F 46.0 °F 83% 29.97 in 10.0 mi North - - N/A   Overcast
1:35 AM 51.1 °F 46.4 °F 84% 29.97 in 10.0 mi North - - N/A   Overcast
1:55 AM 51.3 °F 46.9 °F 85% 29.98 in 10.0 mi North - - N/A   Overcast
2:15 AM 50.9 °F 46.9 °F 86% 29.97 in 10.0 mi North - - N/A   Overcast
2:35 AM 48.9 °F 46.4 °F 91% 29.97 in 10.0 mi North - - N/A   Mostly Cloudy
2:55 AM 48.4 °F 45.5 °F 90% 29.97 in 10.0 mi North - - N/A   Mostly Cloudy
3:15 AM 48.2 °F 45.3 °F 90% 29.97 in 10.0 mi North - - N/A   Mostly Cloudy
3:35 AM 47.8 °F 45.3 °F 91% 29.98 in 10.0 mi North - - N/A   Overcast
3:55 AM 48.6 °F 45.7 °F 90% 29.97 in 10.0 mi North - - N/A   Overcast
4:15 AM 47.3 °F 45.1 °F 92% 29.97 in 10.0 mi North - - N/A   Mostly Cloudy
4:35 AM 46.2 °F 44.6 °F 94% 29.98 in 10.0 mi North - - N/A   Mostly Cloudy
4:55 AM 45.9 °F 44.4 °F 95% 29.98 in 10.0 mi North - - N/A   Overcast
5:15 AM 45.7 °F 44.4 °F 95% 29.98 in 10.0 mi North - - N/A   Overcast
5:35 AM 45.5 °F 44.1 °F 95% 29.98 in 10.0 mi North - - N/A   Mostly Cloudy
5:55 AM 44.4 °F 43.5 °F 97% 29.98 in 10.0 mi North - - N/A   Scattered Clouds
6:15 AM 43.7 °F 43.0 °F 97% 29.99 in 10.0 mi North - - N/A   Mostly Cloudy
6:35 AM 43.2 °F 42.8 °F 99% 29.99 in 10.0 mi North - - N/A   Mostly Cloudy
6:55 AM 42.3 °F 41.9 °F 99% 29.99 in 10.0 mi North - - N/A   Scattered Clouds
7:15 AM 42.8 °F 42.4 °F 99% 30.00 in 10.0 mi North - - N/A   Clear
7:35 AM 43.0 °F 42.8 °F 99% 30.01 in 10.0 mi North - - N/A   Clear
7:55 AM 44.1 °F 43.9 °F 99% 30.00 in 10.0 mi North - - N/A   Clear
8:15 AM 46.2 °F 45.0 °F 95% 30.01 in 10.0 mi North - - N/A   Clear
8:35 AM 52.9 °F 45.7 °F 77% 30.01 in 10.0 mi North - - N/A   Clear
9:15 AM 56.8 °F 44.8 °F 64% 30.01 in 10.0 mi North - - N/A   Mostly Cloudy
9:35 AM 58.5 °F 44.4 °F 60% 30.01 in 10.0 mi North - - N/A   Scattered Clouds
9:55 AM 58.3 °F 41.4 °F 53% 30.01 in 10.0 mi North - - N/A   Mostly Cloudy
10:15 AM 60.6 °F 41.7 °F 50% 30.00 in 10.0 mi North - - N/A   Overcast
10:35 AM 59.7 °F 40.1 °F 48% 30.00 in 10.0 mi North - - N/A   Mostly Cloudy
10:55 AM 60.1 °F 40.8 °F 49% 30.01 in 10.0 mi North - - N/A   Mostly Cloudy
11:15 AM 60.6 °F 41.2 °F 49% 30.00 in 10.0 mi North - - N/A   Mostly Cloudy
11:35 AM 61.7 °F 41.2 °F 47% 30.00 in 10.0 mi North - - N/A   Overcast
11:55 AM 62.6 °F 41.5 °F 46% 29.99 in 10.0 mi North - - N/A   Mostly Cloudy
12:15 PM 64.0 °F 41.5 °F 44% 29.98 in 10.0 mi North - - N/A   Scattered Clouds
12:35 PM 64.9 °F 41.2 °F 42% 29.96 in 10.0 mi North - - N/A   Scattered Clouds
12:55 PM 65.7 °F 41.9 °F 42% 29.95 in 10.0 mi North - - N/A   Scattered Clouds
1:15 PM 67.1 °F 41.0 °F 39% 29.94 in 10.0 mi North - - N/A   Clear
1:35 PM 68.0 °F 42.1 °F 39% 29.93 in 10.0 mi North - - N/A   Scattered Clouds
1:55 PM 68.0 °F 41.4 °F 38% 29.94 in 10.0 mi North - - N/A   Mostly Cloudy
2:15 PM 67.8 °F 40.8 °F 37% 29.93 in 10.0 mi North - - N/A   Overcast
2:35 PM 68.7 °F 41.4 °F 37% 29.92 in 10.0 mi North - - N/A   Mostly Cloudy
2:55 PM 68.9 °F 41.5 °F 37% 29.92 in 10.0 mi North - - N/A   Mostly Cloudy
3:15 PM 69.4 °F 41.5 °F 36% 29.92 in 10.0 mi North - - N/A   Overcast
3:35 PM 70.3 °F 41.7 °F 35% 29.91 in 10.0 mi North - - N/A   Overcast
3:55 PM 69.6 °F 41.5 °F 36% 29.91 in 10.0 mi North - - N/A   Overcast
4:15 PM 70.5 °F 41.7 °F 35% 29.90 in 10.0 mi North - - N/A   Mostly Cloudy
4:35 PM 70.7 °F 41.9 °F 35% 29.90 in 10.0 mi North - - N/A   Mostly Cloudy
4:55 PM 70.5 °F 41.7 °F 35% 29.90 in 10.0 mi North - - N/A   Overcast
5:15 PM 71.6 °F 40.8 °F 33% 29.90 in 10.0 mi North - - N/A   Mostly Cloudy
5:35 PM 72.5 °F 41.0 °F 32% 29.90 in 10.0 mi North - - N/A   Scattered Clouds
5:55 PM 72.1 °F 40.8 °F 32% 29.90 in 10.0 mi North - - N/A   Scattered Clouds
6:15 PM 71.4 °F 39.7 °F 32% 29.91 in 10.0 mi North - - N/A   Scattered Clouds
6:35 PM 71.1 °F 40.1 °F 32% 29.91 in 10.0 mi North - - N/A   Scattered Clouds
6:55 PM 70.0 °F 40.3 °F 34% 29.91 in 10.0 mi North - - N/A   Mostly Cloudy
7:15 PM 70.0 °F 40.5 °F 34% 29.92 in 10.0 mi North - - N/A   Scattered Clouds
7:35 PM 68.5 °F 41.5 °F 37% 29.93 in 10.0 mi North - - N/A   Scattered Clouds
7:55 PM 68.0 °F 41.5 °F 38% 29.94 in 10.0 mi North - - N/A   Scattered Clouds
8:15 PM 67.1 °F 40.1 °F 37% 29.95 in 10.0 mi North - - N/A   Scattered Clouds
8:35 PM 65.7 °F 40.1 °F 39% 29.96 in 10.0 mi North - - N/A   Clear
8:55 PM 65.5 °F 39.6 °F 39% 29.96 in 10.0 mi North - - N/A   Clear
9:15 PM 65.1 °F 40.1 °F 40% 29.98 in 10.0 mi North - - N/A   Clear
9:35 PM 61.5 °F 42.6 °F 50% 29.99 in 10.0 mi North - - N/A   Clear
9:55 PM 60.1 °F 43.3 °F 54% 30.00 in 10.0 mi North - - N/A   Clear
10:15 PM 57.9 °F 44.6 °F 61% 30.00 in 10.0 mi North - - N/A   Clear
10:35 PM 54.9 °F 45.1 °F 70% 30.01 in 10.0 mi North - - N/A   Clear
10:55 PM 54.9 °F 45.0 °F 69% 30.02 in 10.0 mi North - - N/A   Clear
11:15 PM 54.7 °F 45.1 °F 70% 30.02 in 10.0 mi North - - N/A   Clear
11:35 PM 53.8 °F 45.1 °F 73% 30.03 in 10.0 mi North - - N/A   Scattered Clouds
11:55 PM 53.6 °F 45.7 °F 75% 30.03 in 10.0 mi North - - N/A   Mostly Cloudy